Location: Ch�risy
(50.2331°N, 2.9131°E)
Time: 19:54:45
(UTC+00:00)

COSMO-SKYMED 1 - Pass Details

Date: 17 January 2021
Orbit: 621 x 623 km, 97.9° (Epoch: 27 February)

Event Time Altitude Azimuth Distance (km) Brightness Sun altitude
Exits shadow 18:38:28 - 5° (N) 2,191 5.3 -22.0°
Reaches altitude 10° 18:38:56 10° 3° (N) 2,007 5.1 -22.0°
Maximum altitude 18:43:06 46° 291° (WNW) 842 3.6 -22.7°
Drops below altitude 10° 18:47:15 10° 218° (SW) 1,991 5.7 -23.3°
Sets 18:49:29 0° 212° (SSW) 2,893 6.5 -23.7°
